Fallon Naval Air Station, Van Voorhis Field Fallon US
ICAO: KNFL
IATA: NFL
Category: Medium
Scheduled Services: No

Elevation: 3934 ft
TransAlt. 18000 ft.

Airport Communications:
NAVY FALLON APP/DEP:120.85
ATIS:37.092
CLNC DEL:35.355
GND:25.115
DESERT CON:126.2
BASE OPS:23.8
PMSV METRO:32.74
NAVY FALLON TWR:119.25

KNFL Zoom In..

Runways:

(A) RW 07 length 7003 ft width 154 ft
---- / hdg 73

(B) RW 13L length 11080 ft width 200 ft
---- / hdg 131

(C) RW 13R length 14005 ft width 201 ft
---- / hdg 131

(D) RW 25 length 7003 ft width 154 ft
---- / hdg 253

(E) RW 31L length 14005 ft width 201 ft
---- / hdg 311

(F) RW 31R length 11080 ft width 200 ft
---- / hdg 311

Location; KNFL
Day. 17 / Time. 06.56 Zulu
* Altimeter: 30.08
* Temperature: 24° c. 75.2°f.
* Wind from: 280° Speed 04 kn.
Dewpoint: 06° c.
Visibility: 10 Statute Miles.
Clouds: Few 6000 ft.
Clouds: Scattered 15000 ft.
Clouds: Scattered 15000 ft.
Conditions: Smoke.Conditions: Haze.

KNFL 170656Z 28004KT 10SM FEW060 SCT150 24/06 A3008 RMK AO2 SLP154 FU SCT150 HZ ALQDS T02440056


Wind From 280°
Speed 04 kn.

 
 
jpsmedia.com for Web Design worldairports.se 2018   terms of use